Regional Weather Roundup
Issued by NWS Northern Indiana

Home | Current Version | Previous Version | Graphics & Text | Print | Product List | Glossary On
Versions: 1 2 3 4 5 6 7 8 9 10 11 12 13 14 15 16 17 18 19 20 21 22 23 24 25 26 27 28 29 30 31 32 33 34 35 36 37 38 39 40 41 42 43 44 45 46 47 48 49 50
000
ASUS43 KIWX 281410
RWRIWX

KIWX WEATHER ROUNDUP
NATIONAL WEATHER SERVICE NORTHERN INDIANA
1000 AM EDT TUE MAR 28 2017

NOTE: "FAIR" INDICATES FEW OR NO CLOUDS BELOW 12,000 FEET WITH NO
SIGNIFICANT WEATHER AND/OR OBSTRUCTIONS TO VISIBILITY.

* THESE STATIONS ARE NOT UNDER NWS QUALITY CONTROL. THEY ALSO MAY NOT
  REPORT WEATHER SUCH AS PRECIPITATION OR FOG.

INZ001>027-281500-
NORTHERN INDIANA

CITY           SKY/WX    TMP DP  RH WIND       PRES   REMARKS
GARY*          CLOUDY    41  37  87 N17       30.10R
VALPARAISO     CLOUDY    41  38  89 N8        30.08R
MICHIGAN CITY* CLOUDY    37  37 100 N9        30.08R
LAPORTE*       CLOUDY    39  37  93 N10       30.07R
KNOX*          CLOUDY    41  28  60 N8        30.06R
SOUTH BEND     CLOUDY    41  39  93 N8        30.05R FOG
ELKHART*       CLOUDY    43  39  87 NW3       30.04R FOG
GOSHEN         CLOUDY    45  41  86 N12       30.03R
MONTICELLO*    CLOUDY    42  39  89 N6        30.05R
LOGANSPORT*    CLOUDY    45  41  87 N8        30.04S
ROCHESTER*     CLOUDY    48  45  87 N7        30.04R
WARSAW*        CLOUDY    45  41  87 N6        30.03R
ANGOLA*        CLOUDY    45  34  65 VRB6      30.02R
FORT WAYNE     CLOUDY    48  43  82 N13       30.01R
HUNTINGTON*    CLOUDY    47  45  91 N12       30.02R
PERU/GRISSOM   CLOUDY    46  46 100 NE8       30.02R
MARION*        CLOUDY    47  45  90 N10       30.03R

$$
INZ028>050-281500-
CENTRAL INDIANA

CITY           SKY/WX    TMP DP  RH WIND       PRES   REMARKS
LAFAYETTE      CLOUDY    42  41  96 N7        30.06R
KOKOMO*        CLOUDY    46  44  93 N12       30.04R
MUNCIE*        CLOUDY    51  48  89 N13       30.00R FOG
INDIANAPOLIS   CLOUDY    50  47  89 N12       30.00R

$$
MIZ043>046-050>051-056>058-064>065-071>073-077>080-281500-
SOUTHWEST LOWER MICHIGAN

CITY           SKY/WX    TMP DP  RH WIND       PRES   REMARKS
BATTLE CREEK   CLOUDY    43  41  93 N7        30.04R FOG
BENTON HARBOR  CLOUDY    39  37  92 VRB6      30.07R FOG
COLDWATER*     CLOUDY    45  41  86 N7        30.02S
HILLSDALE*     CLOUDY    41  37  87 N6        30.01R
HOLLAND        CLOUDY    42  37  82 N8        30.07R
GRAND RAPIDS   CLOUDY    41  39  93 NE10      30.06R
KALAMAZOO      LGT RAIN  44  40  85 NE6       30.04R FOG
STURGIS*       CLOUDY    44  42  90 N7        30.02R
THREE RIVERS*  CLOUDY    44  42  89 N3        30.04R FOG

$$
OHZ001>008-015>018-024>025-281500-
NORTHWEST OHIO

CITY           SKY/WX    TMP DP  RH WIND       PRES   REMARKS
WAUSEON*       CLOUDY    46  45  93 N9        30.01R FOG
DEFIANCE       CLOUDY    47  43  86 N10       30.01R
FINDLAY        CLOUDY    46  41  82 NE13      29.98R
TOLEDO EXPRESS CLOUDY    44  43  96 NE9       30.00R FOG
TOLEDO METCALF CLOUDY    45  42  89 NE8       30.02R
LIMA           CLOUDY    47  47 100 NE10      29.98R FOG

$$
AND FOR LAKE MICHIGAN COASTAL AND OPEN LAKE BUOY OBSERVATIONS

STATION/POSITION TEMP    WIND        PRES    VSBY  WAVE
                 AIR SEA DIR/SP/G                  HT/PER
                 (F)     (DEG/KT/KT) (MB)    (MI)  (FT/S)
CALUMET HARBOR    39     340/ 11/ 17 1018.6R
MICHIGAN CITY     38     360/ 13/ 14   N/A
BURNS HARBOR      39     360/  8/ 16 1019.3
SAINT JOSEPH      38      10/  8/ 13 1018.6

$$
&&




USA.gov is the U.S. government's official web portal to all federal, state and local government web resources and services.